HISPASAT 36W-1          
1 41942U 17006A   19265.48521826 -.00000252  00000-0  00000+0 0  9992
2 41942   0.0061  42.6934 0001038 139.1886 317.8621  1.00271499  9869
FREGAT R/B              
1 41943U 17006B   19265.13406724  .00005725  00000-0  32856-3 0  9991
2 41943   5.0122 226.1160 6883806  43.7011 353.6399  2.83142332 25021